Location: Caltech
(34.1382°N, 118.1253°W)
Time: 16:42:22
(UTC-07:00)

Cosmos 1939 Rocket - Visible Passes

Search period start: 02 September 2014 00:00
Search period end: 12 September 2014 00:00
Orbit: 542 x 593 km, 97.6° (Epoch: 02 September)

Date Brightness Start Highest point End Pass type
(mag) Time Alt. Az. Time Alt. Az. Time Alt. Az.
02 Sep 4.9 20:36:00 14° NE 20:36:00 14° NE 20:37:33 10° NE visible
02 Sep 5.3 22:12:06 22° NW 22:12:06 22° NW 22:13:49 10° NNW visible
03 Sep 5.0 20:37:22 14° NE 20:37:22 14° NE 20:38:50 10° NNE visible
03 Sep 5.4 22:13:28 20° NW 22:13:28 20° NW 22:15:01 10° NNW visible
04 Sep 5.0 20:38:44 14° NE 20:38:44 14° NE 20:40:08 10° NNE visible
04 Sep 5.6 22:14:50 19° NW 22:14:50 19° NW 22:16:12 10° NNW visible
05 Sep 5.0 20:40:06 14° NE 20:40:06 14° NE 20:41:24 10° NNE visible
05 Sep 5.7 22:16:12 17° NW 22:16:12 17° NW 22:17:23 10° NNW visible
06 Sep 5.0 20:41:29 14° NE 20:41:29 14° NE 20:42:41 10° NNE visible
06 Sep 5.8 22:17:34 16° NW 22:17:34 16° NW 22:18:34 10° NNW visible
07 Sep 5.0 20:42:51 14° NE 20:42:51 14° NE 20:43:57 10° NNE visible
07 Sep 5.9 22:18:56 15° NW 22:18:56 15° NW 22:19:44 10° NW visible
08 Sep 5.1 20:44:13 14° NE 20:44:13 14° NE 20:45:13 10° NNE visible
08 Sep 6.0 22:20:18 13° NW 22:20:18 13° NW 22:20:55 10° NW visible
09 Sep 5.1 20:45:35 14° NE 20:45:35 14° NE 20:46:28 10° NNE visible
09 Sep 6.1 22:21:40 12° NW 22:21:40 12° NW 22:22:05 10° NW visible
10 Sep 5.2 20:46:56 13° NE 20:46:56 13° NE 20:47:44 10° NNE visible
10 Sep 6.1 22:23:02 11° NW 22:23:02 11° NW 22:23:15 10° NW visible
11 Sep 5.2 20:48:18 13° NNE 20:48:18 13° NNE 20:48:58 10° NNE visible
11 Sep 6.2 22:24:24 10° NW 22:24:24 10° NW 22:24:25 10° NW visible
